Regional Weather Roundup
Issued by NWS

Home | Current Version | Previous Version | Text Only | Print | Product List | Glossary Off
Versions: 1 2 3 4 5 6 7 8 9 10 11 12 13 14 15 16 17 18 19 20 21 22 23 24 25 26 27 28 29 30 31 32 33 34 35 36 37 38 39 40 41 42 43 44 45 46 47 48 49 50

000
ASUS43 KDTX 181601
RWRMI
MICHIGAN HOURLY REGIONAL WEATHER ROUNDUP
NATIONAL WEATHER SERVICE DETROIT/PONTIAC MI
1100 AM EST THU DEC 18 2014

NOTE: "FAIR" INDICATES FEW OR NO CLOUDS BELOW 12,000 FEET WITH NO
SIGNIFICANT WEATHER AND/OR OBSTRUCTION TO VISIBILITY.

MIZ047>049-052>055-059>063-066>070-074>076-081>083-181700-
SOUTHEAST LOWER MICHIGAN

CITY           SKY/WX    TMP DP  RH WIND       PRES   REMARKS
ADRIAN         CLOUDY    30  24  78 NW8       30.23F WCI  22
ALMA           CLOUDY    30  27  87 N6        30.22S WCI  24
ANN ARBOR      CLOUDY    30  26  85 W8        30.21S WCI  22
BAD AXE        CLOUDY    27  25  94 NW8       30.20R WCI  19
CARO           CLOUDY    28  24  86 N3        30.20R
DETROIT CITY   CLOUDY    32  26  78 W6        30.22R WCI  26
DETROIT        CLOUDY    31  26  82 SW8       30.22S WCI  23
FLINT          CLOUDY    33  28  81 W8        30.20S WCI  26
GROSSE ILE     CLOUDY    30  27  86 W7        30.21S WCI  23
HILLSDALE      CLOUDY    30  26  87 W7        30.21S WCI  23
HOWELL         MIX PCPN  30  28  93 W7        30.20S WCI  23

CITY           SKY/WX    TMP DP  RH WIND       PRES   REMARKS
JACKSON        CLOUDY    29  26  89 W8        30.21S FOG     WCI  21
LAMBERTVILLE   CLOUDY    32  27  80 W8        30.23F WCI  25
LANSING        CLOUDY    30  28  92 W8        30.22R FOG     WCI  22
LAPEER         MIX PCPN  29  28  95 N5        30.20R WCI  24
MASON          CLOUDY    30  28  93 W7        30.21S FOG     WCI  23
MONROE         CLOUDY    32  27  80 W9        30.21F WCI  24
MT. CLEMENS    FLURRIES  31  31  97 W7        30.19R WCI  25
PONTIAC        CLOUDY    30  27  88 W8        30.18R FOG     WCI  22
PORT HOPE        N/A     28  24  85 NW9G17    30.17R WCI  19
PORT HURON     CLOUDY    30  27  86 NW5       30.20R WCI  25
TRI CITIES     CLOUDY    31  25  78 N5        30.23R WCI  26
TROY           MIX PCPN  32  29  90 W7        30.22S WCI  26
SAGINAW HB     CLOUDY    30  30 100 NW3       30.22R FOG
$$
MIZ043>046-050>051-056>058-064>065-071>073-077>080-181700-
SOUTHWEST LOWER MICHIGAN

CITY           SKY/WX    TMP DP  RH WIND       PRES   REMARKS
BATTLE CREEK   CLOUDY    31  25  78 W8        30.23S WCI  23
BENTON HARBOR  CLOUDY    28  23  81 W8        30.28R WCI  20
BIG RAPIDS     CLOUDY    28  26  91 CALM      30.20S
COLDWATER      CLOUDY    29  25  83 W10       30.23R WCI  20
FREMONT        CLOUDY    31  27  84 N5        30.23R WCI  26
HOLLAND        CLOUDY    34  26  72 W10       30.25R WCI  26
GRAND RAPIDS   FRZ DRZL  31  29  92 W7        30.23S FOG     WCI  24
IONIA          CLOUDY    32  29  90 W8        30.21S WCI  25
KALAMAZOO      CLOUDY    29  24  82 W10       30.24S WCI  20
LUDINGTON      CLOUDY    31  26  84 E5        30.24S WCI  26
MARSHALL       CLOUDY    29  25  86 W10       30.22S WCI  20
MOUNT PLEASANT CLOUDY    29  25  83 CALM      30.21S
MUSKEGON       CLOUDY    34  27  75 N5        30.24S WCI  30
SOUTH HAVEN    CLOUDY    32  26  78 W7        30.26S WCI  25
$$
MIZ016>042-181700-
NORTHERN LOWER MICHIGAN

CITY           SKY/WX    TMP DP  RH WIND       PRES   REMARKS
ALPENA         CLOUDY    23  18  81 N10       30.21R WCI  12
BEAVER ISLAND  SUNNY     23  10  58 NE7       30.26S WCI  15
BELLAIRE       CLOUDY    25  20  82 N3        30.24S
CADILLAC       CLOUDY    25  22  89 NW5       30.18R WCI  19
CHARLEVOIX     SUNNY     22  15  73 E3        30.27S
FRANKFORT      CLOUDY    28  24  86 CALM      30.24R
GAYLORD        CLOUDY    19  14  81 N5        30.18R WCI  12
GRAYLING       CLOUDY    24  21  87 NW3       30.19S
HARBOR SPRINGS SUNNY     20  11  68 E6        30.24S WCI  13
HOUGHTON LAKE  CLOUDY    24  19  81 N5        30.19R WCI  18
MANISTEE       CLOUDY    28  21  74 N6        30.25R WCI  22
OSCODA         CLOUDY    25  22  88 W6        30.20S WCI  18
PELLSTON       SUNNY     21  12  68 N8        30.25R WCI  11
ROGERS CITY    CLOUDY    23  20  89 N7        30.24R WCI  15
TRAVERSE CITY  CLOUDY    28  22  78 N8        30.22S WCI  20
$$
MIZ007>008-015-181700-
EASTERN UPPER MICHIGAN

CITY           SKY/WX    TMP DP  RH WIND       PRES   REMARKS
KINROSS        SUNNY     18   7  62 N7        30.25S WCI   8
MACKINAC ISLAN SUNNY     19  10  67 NE13      30.24R WCI   6
NEWBERRY       SUNNY     18   8  64 N10       30.26R WCI   7
MUNISING         N/A     30  17  58 NE12      30.29R WCI  20
$$
MIZ004>006-011>014-085-181700-
CENTRAL UPPER MICHIGAN

CITY           SKY/WX    TMP DP  RH WIND       PRES   REMARKS
MANISTIQUE     SUNNY     22  14  72 N10G17    30.27S WCI  11
ESCANABA       SUNNY     25  16  68 NE9       30.29R WCI  15
MENOMINEE      CLOUDY    25  19  80 NE9       30.29R WCI  15
SAWYER-GWINN   MOSUNNY   25  16  68 NE8       30.26R WCI  16
$$
MIZ001>003-009>011-084-181700-
WESTERN UPPER MICHIGAN

CITY           SKY/WX    TMP DP  RH WIND       PRES   REMARKS
IRON MOUNTAIN  MOSUNNY   24  17  74 CALM      30.26R
HOUGHTON       SUNNY     22  18  85 CALM      30.29S
COPPER HARBOR    N/A     28  18  66 E7        30.33R WCI  21
IRONWOOD       MOSUNNY   19  18  93 E6        30.26S WCI  11
$$

ABBREVIATIONS USED IN REMARKS
   TC - TEMPERATURE IN CELSIUS
  WCI - WIND CHILL INDEX
   HX - HEAT INDEX
  VSB - VISIBILITY



USA.gov is the U.S. government's official web portal to all federal, state and local government web resources and services.